Regional Weather Roundup
Issued by NWS

Home | Current Version | Previous Version | Text Only | Print | Product List | Glossary On
Versions: 1 2 3 4 5 6 7 8 9 10 11 12 13 14 15 16 17 18 19 20 21 22 23 24 25 26 27 28 29 30 31 32 33 34 35 36 37 38 39 40 41 42 43 44 45 46 47 48 49 50
000
ASUS43 KDTX 020210
RWRMI
MICHIGAN HOURLY REGIONAL WEATHER ROUNDUP
NATIONAL WEATHER SERVICE DETROIT/PONTIAC MI
1000 PM EDT WED APR 01 2015

NOTE: "FAIR" INDICATES FEW OR NO CLOUDS BELOW 12,000 FEET WITH NO
SIGNIFICANT WEATHER AND/OR OBSTRUCTION TO VISIBILITY.

MIZ047>049-052>055-059>063-066>070-074>076-081>083-020300-
SOUTHEAST LOWER MICHIGAN

CITY           SKY/WX    TMP DP  RH WIND       PRES   REMARKS
ADRIAN         PTCLDY    52  36  54 S7        30.02S
ALMA           MOCLDY    51  37  58 S7        29.93F
ANN ARBOR      PTCLDY    44  36  73 SE3       30.03R
BAD AXE        MOCLDY    42  36  78 S10       29.98F
DETROIT CITY   CLEAR     45  35  68 S5        30.05R
DETROIT        MOCLDY    42  33  70 SE6       30.04F
FLINT          CLEAR     49  38  65 S10       29.98S
GROSSE ILE     PTCLDY    39  34  81 S7        30.03S
HILLSDALE      PTCLDY    56  35  45 S6        30.00S
HOWELL         PTCLDY    50  37  59 S10       29.99S

CITY           SKY/WX    TMP DP  RH WIND       PRES   REMARKS
JACKSON        PTCLDY    57  35  43 S8        29.99R
LAMBERTVILLE   CLEAR     45  37  76 CALM      30.03S
LANSING          N/A     56  33  42 S10       29.96S
LAPEER         NOT AVBL
MASON          PTCLDY    53  35  50 S9        29.97S
MT. CLEMENS    CLEAR     36  33  89 SE5       30.03R
PONTIAC        MOCLDY    47  38  71 SE6       30.01R
PORT HOPE        N/A     42  36  79 S10       29.96F
PORT HURON     PTCLDY    39  34  81 SE6       30.05R
TRI CITIES     MOCLDY    52  36  54 SE13      29.94F
YPSILANTI      PTCLDY    44  34  67 SE8       30.04R
$$
MIZ043>046-050>051-056>058-064>065-071>073-077>080-020300-
SOUTHWEST LOWER MICHIGAN

CITY           SKY/WX    TMP DP  RH WIND       PRES   REMARKS
BATTLE CREEK   PTCLDY    58  36  43 S13       29.96S
BENTON HARBOR  PTCLDY    60  36  40 S12       29.93R
BIG RAPIDS     MOCLDY    55  33  43 S9        29.87F
COLDWATER      PTCLDY    55  34  45 S7        29.98S
HOLLAND        PTCLDY    58  38  47 S9        29.92R
GRAND RAPIDS   MOCLDY    55  37  50 S10       29.92S
KALAMAZOO      PTCLDY    63  37  38 S9        29.96R
MARSHALL       PTCLDY    54  35  48 S7        29.97S
MUSKEGON       MOCLDY    62  35  36 S16G24    29.88S
$$
MIZ016>042-020300-
NORTHERN LOWER MICHIGAN

CITY           SKY/WX    TMP DP  RH WIND       PRES   REMARKS
ALPENA         CLOUDY    41  31  67 SE8       29.94S
BEAVER ISLAND  CLOUDY    35  31  86 E9        29.83F
BELLAIRE       CLOUDY    55  32  42 S8G16     29.83F
CADILLAC       CLOUDY    52  33  47 SE8       29.85S
CHARLEVOIX     CLOUDY    49  30  46 E9        29.86F
FRANKFORT      CLOUDY    62  23  23 S16G23    29.78F
GAYLORD        CLOUDY    48  30  49 S12       29.86S
GRAYLING       CLOUDY    48  32  53 SE7       29.88F
HARBOR SPRINGS CLOUDY    46  29  53 E6        29.86F
HOUGHTON LAKE  CLOUDY    47  33  58 SE8       29.89F
MANISTEE       CLOUDY    57  30  35 S9        29.82S
OSCODA         CLOUDY    43  37  79 S7        29.95S
PELLSTON       CLOUDY    41  30  65 CALM      29.88F
TRAVERSE CITY  CLOUDY    56  31  38 SE6       29.80F
$$
MIZ007>008-015-020300-
EASTERN UPPER MICHIGAN

CITY           SKY/WX    TMP DP  RH WIND       PRES   REMARKS
KINROSS        CLOUDY    34  30  86 E15       29.89F
MACKINAC ISLAN CLOUDY    35  31  83 E12G20    29.88F
NEWBERRY       LGT SNOW  34  32  91 SE10G16   29.84R
S. S. MARIE    LGT RAIN  35  25  66 E13G18    29.89F
$$
MIZ004>006-011>014-085-020300-
CENTRAL UPPER MICHIGAN

CITY           SKY/WX    TMP DP  RH WIND       PRES   REMARKS
MANISTIQUE     CLOUDY    36  32  85 E13G18    29.78F
ESCANABA       CLOUDY    39  32  75 E14       29.73F
MENOMINEE      CLOUDY    39  32  75 E3        29.69F
SAWYER-GWINN   PTCLDY    37  32  81 S17       29.67F
$$
MIZ001>003-009>011-084-020300-
WESTERN UPPER MICHIGAN

CITY           SKY/WX    TMP DP  RH WIND       PRES   REMARKS
IRON MOUNTAIN  MOCLDY    43  32  65 SE9       29.65F
HOUGHTON       MOCLDY    39  34  82 SE12      29.55F
COPPER HARBOR    N/A     39  34  82 SW22G38   29.55F
IRONWOOD       CLOUDY    57  45  62 SW16      29.56R
$$

ABBREVIATIONS USED IN REMARKS
   TC - TEMPERATURE IN CELSIUS
  WCI - WIND CHILL INDEX
   HX - HEAT INDEX
  VSB - VISIBILITY




USA.gov is the U.S. government's official web portal to all federal, state and local government web resources and services.